FW4250 Weather Reports


Display with metric or nautical units.
time (UTC)temp
F
wind
direction
speed
MPH
gust
MPH
rain 1hr
in
rain 24hr
in
rain mn
in
humidity
%
barometer
mb
20260506204025 70 192 8.0 12.0 0.00 0.00 0.00 64 990.8
20260506203524 70 185 5.0 9.0 0.00 0.00 0.00 66 990.8
20260506203024 70 215 3.0 10.0 0.00 0.00 0.00 65 990.8
20260506202523 70 170 6.0 10.0 0.00 0.00 0.00 65 990.9
20260506202024 70 167 3.0 11.0 0.00 0.00 0.00 65 991.0
20260506201523 70 169 5.0 10.0 0.00 0.00 0.00 64 991.0
20260506201023 71 173 6.0 11.0 0.00 0.00 0.00 65 990.9
20260506200522 71 203 6.0 11.0 0.00 0.00 0.00 64 991.0
20260506200023 71 173 6.0 11.0 0.00 0.00 0.00 64 991.0
20260506195523 71 222 7.0 11.0 0.00 0.00 0.00 65 991.0
20260506195022 71 209 4.0 10.0 0.00 0.00 0.00 65 991.0
20260506194522 71 198 5.0 12.0 0.00 0.00 0.00 65 991.1
20260506194023 70 185 6.0 12.0 0.00 0.00 0.00 64 991.0
20260506193520 70 114 5.0 14.0 0.00 0.00 0.00 64 991.1
20260506193020 70 178 6.0 14.0 0.00 0.00 0.00 64 991.1
20260506192518 70 188 5.0 10.0 0.00 0.00 0.00 65 991.0
20260506192017 70 184 4.0 10.0 0.00 0.00 0.00 64 991.1
20260506191518 70 238 4.0 8.0 0.00 0.00 0.00 65 991.1
20260506191017 69 207 4.0 10.0 0.00 0.00 0.00 64 991.2
20260506190519 70 144 4.0 10.0 0.00 0.00 0.00 65 991.1
20260506190014 69 166 6.0 10.0 0.00 0.00 0.00 64 991.1
20260506185514 69 219 4.0 8.0 0.00 0.00 0.00 65 991.2
20260506185014 69 228 4.0 7.0 0.00 0.00 0.00 66 991.2
20260506184512 68 231 4.0 8.0 0.00 0.00 0.00 66 991.3
20260506184011 68 184 5.0 8.0 0.00 0.00 0.00 65 991.4
20260506183512 68 239 5.0 8.0 0.00 0.00 0.00 65 991.3
20260506183009 69 215 3.0 8.0 0.00 0.00 0.00 64 991.3
20260506182509 68 226 4.0 9.0 0.00 0.00 0.00 65 991.4
20260506182010 68 202 4.0 8.0 0.00 0.00 0.00 65 991.4
20260506181505 68 214 3.0 6.0 0.00 0.00 0.00 67 991.6
20260506181007 67 274 1.0 6.0 0.00 0.00 0.00 65 991.6
20260506180503 67 179 3.0 6.0 0.00 0.00 0.00 65 991.6
20260506180002 67 189 2.0 11.0 0.00 0.00 0.00 65 991.7
20260506175502 67 194 4.0 11.0 0.00 0.00 0.00 65 991.7
20260506175100 66 303 2.0 7.0 0.00 0.00 0.00 67 991.6
20260506174559 67 213 3.0 7.0 0.00 0.00 0.00 66 991.7
20260506174058 66 270 3.0 7.0 0.00 0.00 0.00 67 991.8
20260506173556 66 162 4.0 8.0 0.00 0.00 0.00 67 991.8
20260506173116 66 202 1.0 7.0 0.00 0.00 0.00 67 991.8
20260506172555 66 231 3.0 7.0 0.00 0.00 0.00 66 991.7
20260506172052 66 159 4.0 8.0 0.00 0.00 0.00 66 991.6
20260506171559 65 180 2.0 8.0 0.00 0.00 0.00 66 991.6
20260506171051 66 212 3.0 5.0 0.00 0.00 0.00 66 991.7
20260506170550 65 187 2.0 5.0 0.00 0.00 0.00 68 991.7
20260506170048 64 231 2.0 6.0 0.00 0.00 0.00 67 991.7
20260506165547 65 208 3.0 7.0 0.00 0.00 0.00 68 991.7
20260506165046 64 188 4.0 6.0 0.00 0.00 0.00 68 991.8
20260506164545 64 106 1.0 7.0 0.00 0.00 0.00 67 991.8
20260506164043 63 109 3.0 7.0 0.00 0.00 0.00 69 991.7
20260506163542 63 171 1.0 6.0 0.00 0.00 0.00 69 991.7
20260506163047 63 171 3.0 7.0 0.00 0.00 0.00 71 991.8
20260506162539 63 150 3.0 7.0 0.00 0.00 0.00 69 991.8
20260506162039 63 148 3.0 7.0 0.00 0.00 0.00 70 991.8
20260506161548 62 132 2.0 6.0 0.00 0.00 0.00 71 991.8
20260506161034 61 179 3.0 6.0 0.00 0.00 0.00 73 991.7
20260506160535 61 178 3.0 9.0 0.00 0.00 0.00 72 991.8
20260506160032 61 182 3.0 9.0 0.00 0.00 0.00 74 991.7
20260506155530 60 161 2.0 5.0 0.00 0.03 0.00 76 991.8
20260506155029 60 160 2.0 5.0 0.00 0.03 0.00 76 991.8
20260506154527 59 152 2.0 5.0 0.00 0.03 0.00 76 991.9
20260506154026 58 107 0.0 3.0 0.00 0.03 0.00 77 991.8
20260506153526 58 107 0.0 4.0 0.00 0.03 0.00 77 991.7
20260506153024 58 29 1.0 3.0 0.00 0.03 0.00 77 991.8
20260506152522 57 25 0.0 3.0 0.00 0.03 0.00 79 991.9
20260506152021 56 25 0.0 3.0 0.00 0.03 0.00 81 991.9
20260506151520 56 25 1.0 3.0 0.00 0.03 0.00 83 991.9
20260506151018 55 24 1.0 3.0 0.00 0.03 0.00 85 991.8
20260506150517 54 20 0.0 1.0 0.00 0.03 0.00 88 991.8
20260506150022 53 19 0.0 2.0 0.00 0.03 0.00 89 991.8
20260506145513 53 19 0.0 2.0 0.00 0.03 0.00 92 991.7
20260506145012 52 19 0.0 3.0 0.00 0.03 0.00 92 991.8
20260506144511 52 19 0.0 2.0 0.00 0.03 0.00 94 991.7
20260506144010 51 19 0.0 2.0 0.00 0.03 0.00 95 991.7
20260506143510 50 19 0.0 2.0 0.00 0.03 0.00 94 991.6
20260506143010 49 19 1.0 2.0 0.00 0.03 0.00 94 991.5
20260506142508 49 19 0.0 0.0 0.00 0.03 0.00 94 991.5
20260506142007 49 19 0.0 2.0 0.00 0.03 0.00 94 991.5
20260506141506 48 19 1.0 2.0 0.00 0.03 0.00 94 991.6
20260506141006 48 19 0.0 0.0 0.00 0.03 0.00 94 991.6
20260506140506 48 19 0.0 0.0 0.00 0.03 0.00 94 991.5
20260506140005 48 19 0.0 0.0 0.00 0.03 0.00 94 991.5
20260506135504 48 19 0.0 0.0 0.00 0.03 0.00 94 991.4
20260506135006 48 19 0.0 0.0 0.00 0.03 0.00 94 991.4
20260506134510 48 19 0.0 0.0 0.00 0.03 0.00 94 991.4
20260506134003 48 19 0.0 0.0 0.00 0.03 0.00 94 991.4
20260506133503 48 19 0.0 0.0 0.00 0.03 0.00 93 991.4
20260506133002 48 19 0.0 0.0 0.00 0.03 0.00 94 991.4
20260506132600 48 19 0.0 0.0 0.00 0.03 0.00 94 991.4
20260506132100 48 19 0.0 0.0 0.00 0.03 0.00 94 991.2
20260506131612 47 19 0.0 0.0 0.00 0.03 0.00 94 991.3
20260506131059 47 19 0.0 1.0 0.00 0.03 0.00 94 991.2
20260506130559 47 19 0.0 1.0 0.00 0.03 0.00 94 991.2
20260506130058 47 19 0.0 1.0 0.00 0.03 0.00 93 991.2
20260506125556 47 19 0.0 1.0 0.00 0.03 0.00 93 991.1
20260506125056 47 19 0.0 0.0 0.00 0.03 0.00 93 991.0
20260506124556 47 19 0.0 2.0 0.00 0.03 0.00 93 991.1
20260506124057 47 19 0.0 2.0 0.00 0.03 0.00 93 991.1
20260506123555 47 265 0.0 0.0 0.00 0.03 0.00 93 991.1
20260506123056 47 209 0.0 0.0 0.00 0.03 0.00 93 991.1
20260506122555 47 209 0.0 0.0 0.00 0.03 0.00 93 991.0
20260506122054 47 209 0.0 0.0 0.00 0.03 0.00 93 991.0
20260506121604 47 209 0.0 0.0 0.00 0.03 0.00 93 991.0
20260506121054 48 209 0.0 0.0 0.00 0.03 0.00 93 991.0
20260506120554 47 209 0.0 0.0 0.00 0.03 0.00 93 990.9
20260506120054 47 209 0.0 0.0 0.00 0.03 0.00 93 990.9
20260506115554 48 209 0.0 0.0 0.00 0.03 0.00 93 990.8
20260506115053 48 209 0.0 0.0 0.00 0.03 0.00 93 990.9
20260506114555 48 209 0.0 0.0 0.00 0.03 0.00 92 990.8
20260506114052 48 209 0.0 0.0 0.00 0.03 0.00 92 990.8
20260506113552 48 209 0.0 0.0 0.00 0.03 0.00 92 990.8
20260506113052 48 209 0.0 0.0 0.00 0.03 0.00 93 990.8
20260506112551 48 209 0.0 0.0 0.00 0.03 0.00 93 990.8
20260506112051 48 209 0.0 0.0 0.00 0.03 0.00 92 990.9
20260506111609 48 209 0.0 0.0 0.00 0.03 0.00 92 990.8
20260506111051 48 209 0.0 0.0 0.00 0.03 0.00 92 990.7
20260506110553 48 209 0.0 0.0 0.00 0.03 0.00 93 990.7
20260506110053 48 209 0.0 0.0 0.00 0.03 0.00 92 990.7
20260506105550 48 209 0.0 0.0 0.00 0.03 0.00 93 990.7
20260506105050 48 209 0.0 0.0 0.00 0.03 0.00 93 990.7
20260506104550 48 209 0.0 0.0 0.00 0.03 0.00 93 990.7
20260506104053 48 209 0.0 0.0 0.00 0.03 0.00 92 990.8
20260506103549 48 209 0.0 0.0 0.00 0.03 0.00 92 990.7
20260506103049 48 209 0.0 0.0 0.00 0.03 0.00 92 990.6
20260506102550 49 209 0.0 0.0 0.00 0.03 0.00 92 990.7
20260506102051 49 209 0.0 0.0 0.00 0.03 0.00 92 990.6
20260506101546 49 209 0.0 0.0 0.00 0.03 0.00 93 990.6
20260506101047 49 209 0.0 0.0 0.00 0.03 0.00 92 990.6
20260506100546 49 209 0.0 0.0 0.00 0.03 0.00 92 990.6
20260506100048 49 209 0.0 0.0 0.00 0.03 0.00 92 990.7
20260506095546 49 209 0.0 0.0 0.00 0.03 0.00 92 990.6
20260506095048 49 209 0.0 0.0 0.00 0.03 0.00 92 990.7
20260506094546 49 209 0.0 0.0 0.00 0.03 0.00 92 990.8
20260506094046 49 209 0.0 0.0 0.00 0.03 0.00 92 990.7
20260506093550 49 209 0.0 0.0 0.00 0.03 0.00 92 990.8
20260506093052 49 209 0.0 0.0 0.00 0.03 0.00 92 990.7
20260506092544 49 209 0.0 0.0 0.00 0.03 0.00 92 990.8
20260506092046 49 209 0.0 0.0 0.00 0.03 0.00 92 990.8
20260506091544 49 209 0.0 0.0 0.00 0.03 0.00 92 990.8
20260506091044 49 209 0.0 0.0 0.00 0.03 0.00 91 990.9
20260506090546 49 209 0.0 0.0 0.00 0.03 0.00 91 991.0
20260506090041 50 209 0.0 0.0 0.00 0.03 0.00 91 991.0
20260506085541 50 209 0.0 0.0 0.00 0.03 0.00 92 991.1
20260506085041 50 209 0.0 0.0 0.00 0.03 0.00 92 991.0
20260506084541 50 209 0.0 0.0 0.00 0.03 0.00 92 991.0
20260506084041 50 209 0.0 0.0 0.00 0.03 0.00 92 991.1
20260506083539 50 209 0.0 0.0 0.00 0.03 0.00 92 991.0
20260506083046 50 209 0.0 0.0 0.00 0.03 0.00 92 991.0
20260506082540 50 209 0.0 0.0 0.00 0.03 0.00 91 990.9
20260506082038 50 209 0.0 0.0 0.00 0.03 0.00 91 991.1
20260506081546 50 209 0.0 0.0 0.00 0.03 0.00 91 991.0
20260506081037 50 209 0.0 0.0 0.00 0.03 0.00 91 990.9
20260506080540 50 209 0.0 0.0 0.00 0.03 0.00 91 990.9
20260506073035 51 209 0.0 0.0 0.00 0.03 0.00 90 990.8
20260506072532 51 209 0.0 0.0 0.00 0.03 0.00 90 990.8
20260506072033 51 209 0.0 0.0 0.00 0.03 0.00 90 990.7
20260506071533 51 209 0.0 0.0 0.00 0.03 0.00 90 990.5
20260506071029 51 209 0.0 0.0 0.00 0.03 0.00 90 990.6
20260506070529 51 209 0.0 0.0 0.00 0.03 0.00 90 990.5
20260506062025 52 209 0.0 0.0 0.00 0.03 0.03 89 989.9
20260506061533 52 209 0.0 2.0 0.00 0.03 0.03 88 990.0
20260506061024 52 209 0.0 2.0 0.00 0.03 0.03 88 989.9
20260506060524 52 209 0.0 0.0 0.00 0.03 0.03 88 989.9
20260506051024 54 209 0.0 0.0 0.00 0.03 0.03 86 989.5
20260506050519 54 209 0.0 2.0 0.00 0.03 0.03 85 989.4
20260506045019 55 209 0.0 0.0 0.00 0.03 0.03 84 989.4
20260506044520 55 209 0.0 0.0 0.00 0.03 0.03 83 989.2
20260506044022 56 209 0.0 2.0 0.00 0.03 0.03 84 989.3
20260506043517 56 209 0.0 2.0 0.00 0.03 0.03 84 989.1
20260506043017 56 209 0.0 2.0 0.00 0.03 0.03 84 989.0
20260506042516 56 209 0.0 2.0 0.00 0.03 0.03 84 989.1
20260506042017 56 209 0.0 3.0 0.00 0.03 0.03 84 989.0
20260506041516 56 209 1.0 3.0 0.00 0.03 0.03 83 989.0
20260506041014 56 209 0.0 2.0 0.00 0.03 0.03 82 988.9
20260506040517 57 209 0.0 3.0 0.00 0.03 0.03 83 988.8
20260506040016 57 209 1.0 3.0 0.00 0.03 0.03 82 988.6
20260506035512 57 209 0.0 0.0 0.00 0.03 0.03 82 988.5
20260506035012 57 209 0.0 0.0 0.00 0.03 0.03 81 988.4
20260506034512 57 209 0.0 1.0 0.00 0.03 0.03 80 988.3
20260506034011 57 209 0.0 1.0 0.00 0.03 0.03 80 988.2
20260506033510 58 209 0.0 3.0 0.00 0.03 0.03 80 988.1
20260506033015 58 209 0.0 3.0 0.00 0.03 0.03 80 988.0
20260506032508 58 209 0.0 0.0 0.00 0.03 0.03 80 987.9
20260506032009 58 209 0.0 0.0 0.00 0.03 0.03 79 987.9
20260506031509 58 209 0.0 0.0 0.00 0.03 0.03 79 987.8
20260506031009 58 209 0.0 0.0 0.00 0.03 0.03 77 987.7
20260506030508 59 209 0.0 0.0 0.00 0.03 0.03 76 987.7
20260506030008 59 209 0.0 0.0 0.00 0.03 0.03 76 987.6
20260506025509 59 209 0.0 0.0 0.00 0.03 0.03 76 987.6
20260506025009 60 209 0.0 0.0 0.00 0.03 0.03 75 987.5
20260506024522 60 209 0.0 0.0 0.00 0.03 0.03 74 987.4
20260506024008 61 209 0.0 0.0 0.00 0.03 0.03 74 987.2
20260506023508 61 209 0.0 0.0 0.00 0.03 0.03 73 987.2
20260506023008 61 209 0.0 0.0 0.00 0.03 0.03 73 987.2
20260506022506 61 209 0.0 0.0 0.00 0.03 0.03 72 987.1
20260506022008 62 209 0.0 0.0 0.00 0.03 0.03 72 987.1
20260506021510 62 209 0.0 0.0 0.00 0.03 0.03 71 987.0
20260506021007 62 209 0.0 0.0 0.00 0.03 0.03 71 987.1
20260506020506 62 209 0.0 0.0 0.00 0.03 0.03 70 987.0
20260506020006 63 209 0.0 0.0 0.00 0.03 0.03 70 987.0
20260506015508 63 209 0.0 4.0 0.00 0.03 0.03 70 987.0
20260506015006 63 209 1.0 4.0 0.00 0.03 0.03 70 987.0
20260506014512 63 209 1.0 5.0 0.00 0.03 0.03 69 986.9
20260506014005 64 209 2.0 5.0 0.00 0.03 0.03 69 986.9
20260506013506 64 209 2.0 7.0 0.00 0.03 0.03 69 986.9
20260506013005 64 164 4.0 7.0 0.00 0.03 0.03 68 986.8
20260506012505 64 166 5.0 7.0 0.00 0.03 0.03 67 986.9
20260506012005 64 203 1.0 6.0 0.00 0.03 0.03 68 986.9
20260506011504 64 213 3.0 6.0 0.00 0.03 0.03 68 986.9
20260506011004 64 207 2.0 6.0 0.00 0.03 0.03 68 986.8
20260506010511 64 209 3.0 9.0 0.00 0.03 0.03 67 986.8
20260506010004 64 198 4.0 9.0 0.00 0.03 0.03 67 986.9
20260506005504 64 181 3.0 6.0 0.00 0.03 0.03 67 986.8
20260506005004 64 181 3.0 7.0 0.00 0.03 0.03 67 986.9
20260506004506 64 184 4.0 8.0 0.00 0.03 0.03 67 986.9
20260506004005 64 163 4.0 7.0 0.00 0.03 0.03 68 986.7
20260506003504 64 148 4.0 8.0 0.00 0.03 0.03 68 986.7
20260506003005 64 166 5.0 8.0 0.00 0.03 0.03 67 986.8
20260506002504 65 190 5.0 8.0 0.00 0.03 0.03 66 986.8
20260506002005 65 169 3.0 9.0 0.00 0.03 0.03 64 986.7
20260506001504 65 132 2.0 5.0 0.00 0.03 0.03 64 986.7
20260506001003 65 137 2.0 8.0 0.00 0.03 0.03 63 986.7
20260506000506 65 162 3.0 8.0 0.00 0.03 0.03 63 986.6
20260506000002 65 180 2.0 7.0 0.00 0.03 0.03 64 986.5
20260505235502 65 211 3.0 8.0 0.00 0.03 0.03 63 986.6
20260505235003 65 176 3.0 8.0 0.00 0.03 0.03 63 986.6
20260505234502 65 228 4.0 7.0 0.00 0.03 0.03 63 986.5
20260505234005 65 200 4.0 9.0 0.00 0.03 0.03 63 986.5
20260505233501 65 178 5.0 10.0 0.00 0.03 0.03 62 986.5
20260505233002 66 185 5.0 12.0 0.00 0.03 0.03 62 986.6
20260505232503 67 180 7.0 15.0 0.00 0.03 0.03 59 986.4
20260505232001 68 162 6.0 15.0 0.00 0.03 0.03 59 986.4
20260505231501 68 173 5.0 15.0 0.00 0.03 0.03 61 986.4
20260505231100 68 173 6.0 13.0 0.00 0.03 0.03 59 986.3
20260505230600 68 188 7.0 15.0 0.00 0.03 0.03 60 986.4
20260505230110 68 194 8.0 13.0 0.00 0.03 0.03 60 986.5
20260505225601 67 168 5.0 9.0 0.00 0.03 0.03 60 986.4
20260505225059 67 183 5.0 10.0 0.00 0.03 0.03 60 986.6
20260505224600 67 142 5.0 11.0 0.00 0.03 0.03 61 986.7
20260505224101 66 202 5.0 9.0 0.00 0.03 0.03 62 986.8
20260505223602 66 180 4.0 10.0 0.00 0.03 0.03 61 986.9
20260505223103 67 159 6.0 10.0 0.00 0.03 0.03 58 987.0
20260505222600 68 178 7.0 10.0 0.00 0.03 0.03 59 987.0
20260505222057 66 221 5.0 10.0 0.00 0.03 0.03 61 987.0
20260505221601 66 199 7.0 10.0 0.00 0.03 0.03 61 987.0
20260505221056 66 202 5.0 10.0 0.00 0.03 0.03 60 987.2
20260505220556 67 174 6.0 10.0 0.00 0.03 0.03 59 987.2
20260505220058 67 188 6.0 10.0 0.00 0.03 0.03 59 987.1
20260505215556 67 228 5.0 11.0 0.00 0.03 0.03 59 987.2
20260505215056 67 192 6.0 11.0 0.00 0.03 0.03 60 987.4
20260505214556 66 181 6.0 10.0 0.00 0.03 0.03 61 987.4
20260505214058 66 212 3.0 9.0 0.00 0.03 0.03 60 987.5
20260505213558 67 223 5.0 10.0 0.00 0.03 0.03 59 987.5
20260505213057 67 241 5.0 10.0 0.00 0.03 0.03 60 987.6
20260505212558 67 184 5.0 9.0 0.00 0.03 0.03 62 987.7
20260505212055 66 180 6.0 10.0 0.00 0.03 0.03 61 987.6
20260505211555 66 200 3.0 10.0 0.00 0.03 0.03 63 987.7
20260505211055 66 190 5.0 10.0 0.00 0.03 0.03 63 987.8
20260505210554 66 223 6.0 11.0 0.00 0.03 0.03 63 987.7
20260505210054 66 238 5.0 10.0 0.00 0.03 0.03 64 987.7
20260505205555 65 214 5.0 10.0 0.00 0.03 0.03 64 987.7
20260505205056 65 242 4.0 11.0 0.00 0.03 0.03 64 987.6
20260505204600 65 197 6.0 11.0 0.00 0.03 0.03 63 987.6